Location: Hope
(40.9110°N, 74.9680°W)
Time: 01:37:00
(UTC-05:00)

FORTE - Pass Details

Date: 10 December 2021
Orbit: 785 x 822 km, 70.0° (Epoch: 22 January)

Event Time Altitude Azimuth Distance (km) Brightness Sun altitude
Exits shadow 05:07:23 32° 219° (SW) 1,329 8.0 -23.1°
Maximum altitude 05:09:54 71° 296° (WNW) 835 6.9 -22.6°
Drops below altitude 10° 05:15:19 10° 21° (NNE) 2,372 9.6 -21.6°
Sets 05:17:46 0° 24° (NNE) 3,311 10.4 -21.2°
